Weather observations for the past three days for
Sandberg
Imperial (Metric)
Date Time (pdt) Wind (mph) Vis. (mi.) Weather Sky Cond. Temperature (ºF) Relative Humidity Wind Chill (°F) Heat Index (°F) Pressure Precipitation (in)
Air Dwpt 6 hour altimeter (in) sea level (mb) 1 hr 3 hr 6 hr
Max. Min.
10 07:51 N 9 10.00 Fair CLR 68 35.1 30% 30.08 1013.7
10 05:51 NW 16 10.00 Fair CLR 61 36 39% 30.04 1012.3
10 04:51 NW 20 10.00 Fair CLR 61 36 64 61 39% 30.04 1011.9
10 01:51 NW 18 10.00 Fair CLR 64 30.9 29% 30.04 1011.8
10 00:51 NW 16 10.00 Fair CLR 64 32 30% 30.05 1012.2
09 23:51 NW 15 10.00 Fair CLR 64 30 28% 30.06 1012.6
09 22:51 N 15 G 24 10.00 Fair CLR 63 28.9 75.9 61 28% 30.06 1012.9
09 21:51 N 12 10.00 Fair CLR 63 30 29% 30.07 1013.2
09 20:51 NW 16 10.00 Fair CLR 63 36 37% 30.06 1013.1
09 19:51 NW 10 10.00 Fair CLR 64 37.9 38% 30.04 1012.8
09 18:51 NW 13 10.00 Fair CLR 69.1 41 36% 30.03 1012.4
09 17:51 NW 9 10.00 Fair CLR 73 42.1 33% 30.03 1012.4
09 16:51 W 5 10.00 Fair CLR 75.9 42.1 79 72 30% 77 30.04 1012.2
09 15:51 Vrbl 6 G 18 10.00 Fair CLR 79 43 28% 78 30.04 1012.2
09 14:51 Vrbl 6 G 22 10.00 Fair CLR 77 37.9 24% 77 30.05 1012.6
09 13:51 Vrbl 7 G 17 10.00 Fair CLR 77 39 26% 77 30.06 1012.9
09 12:51 Calm 10.00 Fair CLR 77 37.9 24% 77 30.07 1013.1
09 11:51 N 9 10.00 Fair CLR 75.9 35.1 23% 77 30.08 1013.3
09 10:51 N 8 G 17 10.00 Fair CLR 73 36 73 54 26% 30.08 1013.6
09 09:51 N 10 G 18 10.00 Fair CLR 70 32 25% 30.08 1013.4
09 08:51 Calm 10.00 Fair CLR 66 26.1 22% 30.07 1013.4
09 07:51 N 14 G 24 10.00 Fair CLR 62.1 28 28% 30.06 1013.5
09 06:51 N 14 G 26 10.00 Fair CLR 57.9 30.9 36% 30.05 1013.2
09 05:51 N 25 G 32 10.00 Fair and Breezy CLR 55 34 45% 30.04 1012.9
09 04:51 NW 24 G 32 10.00 Fair and Breezy CLR 55 39 63 54 55% 30.04 1012.8
09 03:51 NW 17 G 25 10.00 Fair CLR 55 39.9 57% 30.05 1013.0
09 02:51 NW 20 G 29 10.00 Fair CLR 55.9 39 53% 30.06 1013.2
09 01:51 NW 17 G 30 10.00 Fair CLR 57.9 37 46% 30.07 1013.5
09 00:51 NW 23 G 36 10.00 Fair and Breezy CLR 59 37 44% 30.08 1013.6
08 23:51 N 23 G 33 10.00 Fair and Breezy CLR 61 35.1 38% 30.09 1014.0
08 22:51 N 23 G 35 10.00 Fair and Breezy CLR 62.1 37.9 71.1 62.1 41% 30.09 1014.2
08 21:51 Calm 10.00 Fair CLR 63 35.1 35% 30.09 1014.3
08 20:51 N 12 G 41 10.00 Fair CLR 64 37 37% 30.08 1014.0
08 19:51 N 15 G 25 10.00 Fair CLR 64 36 35% 30.08 1014.1
08 18:51 NW 17 G 35 10.00 Fair CLR 69.1 30.9 24% 30.07 1013.6
08 17:51 NW 18 G 24 10.00 Fair CLR 70 41 35% 30.07 1013.8
08 16:51 NW 20 G 30 10.00 Fair CLR 71.1 41 73 68 34% 30.08 1013.9
08 15:51 NW 17 G 32 10.00 Fair CLR 72 41 33% 30.09 1014.3
08 14:51 N 14 G 35 10.00 Fair CLR 72 39.9 31% 30.1 1014.6
08 13:51 N 22 G 39 10.00 Fair and Breezy CLR 72 42.1 34% 30.12 1015.0
08 12:51 N 22 G 36 10.00 Fair and Breezy CLR 72 42.1 34% 30.12 1015.0
08 11:51 N 23 G 36 10.00 Fair and Breezy CLR 71.1 41 34% 30.13 1015.3
08 10:51 N 20 G 33 10.00 Fair CLR 68 46.9 68 57 47% 30.13 1015.8
08 09:51 N 15 G 35 10.00 Fair CLR 64.9 50 59% 30.14 1016.1
08 08:51 N 15 G 30 10.00 Fair CLR 62.1 52 70% 30.13 1016.3
08 07:51 NW 26 G 33 10.00 Fair and Windy CLR 59 52 78% 30.12 1016.1
08 06:51 NW 21 G 35 10.00 Fair and Breezy CLR 57.9 50 75% 30.11 1015.4
08 05:51 NW 23 G 43 10.00 Fair and Breezy CLR 57 48.9 74% 30.1 1015.0
08 04:51 NW 24 G 33 10.00 Fair and Breezy CLR 57.9 48.9 62.1 57 72% 30.1 1014.5
08 03:51 NW 25 G 37 10.00 Fair and Breezy CLR 57.9 48.9 72% 30.1 1014.5
08 02:51 NW 20 G 32 10.00 Fair CLR 59 48.9 69% 30.11 1014.7
08 01:51 NW 14 G 33 10.00 Fair CLR 60.1 46.9 62% 30.13 1015.0
08 00:51 NW 13 G 22 10.00 Fair CLR 61 46 58% 30.15 1015.5
07 23:51 Vrbl 6 10.00 Fair CLR 62.1 42.1 48% 30.15 1015.7
07 22:51 Calm 10.00 Fair CLR 61 43 72 60.1 52% 30.15 1015.9
07 21:51 N 9 10.00 Fair CLR 61 46.9 60% 30.15 1016.1
07 20:51 Calm 10.00 Fair CLR 60.1 48 65% 30.13 1015.8
07 19:51 Calm 10.00 Fair CLR 61 48.9 65% 30.12 1015.6
07 18:51 NW 17 G 25 10.00 Fair CLR 64.9 48 54% 30.11 1015.0
07 17:51 NW 18 G 29 10.00 Fair CLR 68 48 49% 30.11 1015.1
07 16:51 NW 17 G 29 10.00 Fair CLR 72 46 79 71.1 40% 30.11 1014.8
07 15:51 NW 15 G 29 10.00 Fair CLR 72 46.9 41% 30.11 1014.9
07 14:51 NW 22 10.00 Fair and Breezy CLR 73.9 43 33% 30.12 1015.2
07 13:51 NW 21 10.00 Fair and Breezy CLR 77 43 30% 78 30.13 1015.4
07 12:51 NW 13 G 18 10.00 Fair CLR 78.1 39 25% 78 30.14 1015.7
07 11:51 Calm 10.00 Fair CLR 75.9 37.9 25% 77 30.16 1016.3
07 10:51 Vrbl 3 10.00 Fair CLR 73.9 37.9 73.9 57 27% 30.16 1016.7
07 09:51 Vrbl 3 10.00 Fair CLR 71.1 39 31% 30.16 1016.9
07 08:51 N 7 10.00 Fair CLR 68 37.9 33% 30.16 1016.7
Date Time (pdt) Wind (mph) Vis. (mi.) Weather Sky Cond. Air Dwpt Max. Min. Relative Humidity Wind Chill (°F) Heat Index (°F) altimeter (in) sea level (mb) 1 hr 3 hr 6 hr
6 hour
Temperature (ºF) Pressure Precipitation (in)